AO-07 1 07530U 74089B 22090.86501459 -.00000046 00000-0 14309-5 0 9997 2 07530 101.8984 70.5093 0012126 189.1306 284.8639 12.53653804167980 UO-11 1 14781U 84021B 22090.75470911 .00001355 00000-0 17076-3 0 9991 2 14781 97.6139 81.7560 0007563 207.7904 152.2907 14.83515518 49522 LO-19 1 20442U 90005G 22090.80923642 .00000197 00000-0 88508-4 0 9993 2 20442 98.7854 54.5216 0012490 41.0707 319.1415 14.33034948682046 HUBBLE 1 20580U 90037B 22090.07405490 .00003561 00000-0 20167-3 0 9990 2 20580 28.4709 328.0210 0002393 271.3878 240.6800 15.10193567554356 MET-2/21 1 22782U 93055A 22090.49559591 .00000055 00000-0 36371-4 0 9997 2 22782 82.5464 76.1075 0021721 203.3502 272.5305 13.83849730443221 AO-27 1 22825U 93061C 22089.31798978 .00000105 00000-0 58569-4 0 9994 2 22825 98.8964 118.6472 0007365 283.7949 76.2412 14.30153239486840 IO-26 1 22826U 93061D 22090.82908764 .00000144 00000-0 73078-4 0 9994 2 22826 98.8904 120.0764 0007919 263.5648 96.4632 14.30496899487563 FO-29 1 24278U 96046B 22090.57197349 .00000028 00000-0 61761-4 0 9991 2 24278 98.5262 124.9418 0351173 125.2895 238.1628 13.53112062265072 NOAA-15 1 25338U 98030A 22090.82280525 .00000192 00000-0 98638-4 0 9996 2 25338 98.6533 121.3415 0010888 158.5609 201.6029 14.26102787242201 GO-32 1 25397U 98043D 22090.56215274 .00000084 00000-0 56335-4 0 9993 2 25397 98.8098 40.8597 0001305 21.5491 338.5742 14.23739754232345 ISS 1 25544U 98067A 22091.03716435 .00015307 00000-0 27820-3 0 9991 2 25544 51.6455 358.7120 0004467 333.2198 223.7288 15.49733108333219 NO-44 1 26931U 01043C 22090.57555779 .00000149 00000-0 88451-4 0 9996 2 26931 67.0497 259.4070 0007712 274.0258 85.9962 14.30675971 70265 SO-50 1 27607U 02058C 22090.54275000 .00001064 00000-0 16814-3 0 9997 2 27607 64.5550 180.2920 0073392 309.8620 49.6042 14.75975846 36878 CO-55 1 27844U 03031E 22090.55793219 .00000342 00000-0 17326-3 0 9997 2 27844 98.6818 99.4131 0009223 333.8505 26.2206 14.22403532972795 CO-57 1 27848U 03031J 22090.56719979 .00000292 00000-0 15198-3 0 9992 2 27848 98.6863 99.9564 0009397 348.7103 11.3863 14.21967138972616 RS-22 1 27939U 03042A 22090.72546842 .00001151 00000-0 21290-3 0 9995 2 27939 98.1770 231.5268 0014169 93.9976 266.2857 14.67206905989647 NOAA-18 1 28654U 05018A 22090.79498880 .00000226 00000-0 14601-3 0 9990 2 28654 98.9552 161.2754 0014352 186.9851 173.1122 14.12705963869103 CO-58 1 28895U 05043F 22090.61741624 .00001383 00000-0 27146-3 0 9996 2 28895 98.0929 223.2608 0017127 30.5003 329.7193 14.64167764876026 Falconsat-3 1 30776U 07006E 22090.29172101 .00048079 00000-0 90169-3 0 9998 2 30776 35.4334 50.1484 0002569 289.5988 70.4464 15.47575642837447 CO-65 1 32785U 08021C 22090.49967590 .00002973 00000-0 31941-3 0 9990 2 32785 97.6497 63.8730 0014072 127.6563 232.5934 14.89219947754952 AAUSAT2 1 32788U 08021F 22090.50557871 .00008295 00000-0 73052-3 0 9994 2 32788 97.5290 78.6425 0012245 34.5222 325.6793 14.96661492756771 DO-64 1 32789U 08021G 22090.56271877 .00018670 00000-0 10990-2 0 9999 2 32789 97.3472 119.7616 0009954 225.3510 134.6910 15.11631725760154 CO-66 1 32791U 08021J 22090.46773885 .00004955 00000-0 49154-3 0 9993 2 32791 97.6048 69.4258 0014621 90.4744 269.8151 14.92123087755640 RS-30 1 32953U 08025A 22090.71299706 .00000021 00000-0 80971-4 0 9993 2 32953 82.5018 232.2582 0020062 72.0817 288.2453 12.43108269628674 PRISM 1 33493U 09002B 22090.53326399 .00008793 00000-0 73098-3 0 9993 2 33493 98.2242 72.7258 0014757 56.6319 303.6312 14.98896418717300 NOAA-19 1 33591U 09005A 22090.78750189 .00000183 00000-0 12417-3 0 9993 2 33591 99.1577 123.2588 0014552 49.3592 310.8842 14.12542957677487 SRMSAT 1 37841U 11058D 22090.47684152 .00000445 00000-0 99629-4 0 9990 2 37841 19.9735 6.2506 0011905 206.6084 309.6146 14.10735083540213 HRBE 1 37855U 11061F 22090.44732520 .00011277 00000-0 51569-3 0 9994 2 37855 101.7057 168.4905 0159190 295.6200 62.8640 15.10240870569456 RS-40 1 38735U 12041C 22090.55549040 .00000011 00000-0 63540-5 0 9994 2 38735 82.4769 314.0812 0016889 177.8224 182.2938 12.42584741438844 ZACUBE-1 1 39417U 13066B 22090.52865652 .00003360 00000-0 41832-3 0 9995 2 39417 97.6289 65.5963 0056654 301.0584 58.5075 14.82007771451588 Delfi-N3xt 1 39428U 13066N 22090.80446333 .00003360 00000-0 52665-3 0 9995 2 39428 97.8099 28.5550 0118645 165.3299 195.1400 14.68667914447316 GOMX-1 1 39430U 13066Q 22090.80921024 .00001393 00000-0 25832-3 0 9993 2 39430 97.8124 2.4360 0148609 290.0000 68.5271 14.59968496444963 LO-74 1 39440U 13066AA 22090.81190886 .00003974 00000-0 54588-3 0 9996 2 39440 97.7181 51.6861 0079969 24.4809 336.0166 14.76689876450027 AO-73 1 39444U 13066AE 22090.87016944 .00004718 00000-0 57115-3 0 9994 2 39444 97.6174 68.3192 0055434 288.3445 71.1745 14.83021148450617 SPROUT 1 39770U 14029E 22090.90611848 .00005976 00000-0 62774-3 0 9998 2 39770 97.9321 207.4728 0007916 350.0594 10.0477 14.89823177426111 DTUSAT-2 1 40030U 14033W 22090.53237121 .00003633 00000-0 38661-3 0 9997 2 40030 97.9339 23.0313 0010674 316.4643 43.5731 14.89547726422044 EO-80 1 40032U 14033Y 22090.77168356 .00004195 00000-0 44578-3 0 9996 2 40032 97.9346 23.2828 0010575 317.1890 42.8502 14.89518587422578 HODOYOSHI-1 1 40299U 14070B 22090.79029926 .00005387 00000-0 21162-3 0 9991 2 40299 97.2512 161.2258 0013768 57.6417 9.9415 15.26015575411216 FIREBIRD FU3 1 40377U 15003B 22090.84646175 .00025774 00000-0 83082-3 0 9993 2 40377 99.1111 298.6032 0106226 287.6690 71.2968 15.26781759396574 FIREBIRD FU4 1 40378U 15003C 22090.54888360 .00022491 00000-0 72431-3 0 9994 2 40378 99.1116 298.4339 0106222 288.3197 70.6505 15.26845036396528 GRIFEX 1 40379U 15003D 22090.75330298 .00015561 00000-0 57659-3 0 9995 2 40379 99.1181 285.3945 0119825 327.6107 31.7806 15.21196501395814 XW-2A 1 40903U 15049E 22090.76776368 .00020828 00000-0 37254-3 0 9992 2 40903 97.1939 149.3323 0011755 51.5891 87.5801 15.49947440367214 XW-2C 1 40906U 15049H 22090.79546111 .00005696 00000-0 28221-3 0 9999 2 40906 97.4952 94.8805 0012105 269.1099 267.7752 15.18094204361130 XW-2D 1 40907U 15049J 22090.78207825 .00006391 00000-0 31176-3 0 9991 2 40907 97.4941 94.7890 0011389 263.9699 270.6969 15.18598892361172 LILACSAT-2 1 40908U 15049K 22090.77682875 .00003319 00000-0 17982-3 0 9999 2 40908 97.5174 92.1622 0013755 288.1267 150.1795 15.15229956360724 XW-2E 1 40909U 15049L 22090.79376396 .00009619 00000-0 42588-3 0 9999 2 40909 97.4683 99.1803 0010607 243.2956 195.2796 15.21814049361594 XW-2F 1 40910U 15049M 22090.77825840 .00009525 00000-0 42798-3 0 9991 2 40910 97.4762 98.2818 0011698 241.7586 292.9868 15.21301275361365 XW-2B 1 40911U 15049N 22090.80184196 .00006492 00000-0 31751-3 0 9995 2 40911 97.4925 95.4339 0011448 265.6447 269.4079 15.18500808361067 DCBB 1 40912U 15049P 22090.78951171 .00010808 00000-0 44617-3 0 9999 2 40912 97.4417 102.6551 0012461 206.8537 259.3608 15.24138099361910 TW-1A 1 40928U 15051D 22090.77100865 .00035083 00000-0 55418-3 0 9997 2 40928 97.0503 114.4177 0006778 324.9602 153.7507 15.53391408366156 IO-86 1 40931U 15052B 22090.11035575 .00001074 00000-0 60394-4 0 9998 2 40931 5.9989 7.9114 0012281 141.1217 219.0086 14.76758788351749 ATHENOXAT-1 1 41168U 15077C 22090.27190411 .00014333 00000-0 63544-3 0 9997 2 41168 14.9859 308.9484 0008601 224.5916 281.2945 15.18637829348396 ChubuSat-2 1 41338U 16012B 22090.60539061 .00003341 00000-0 24859-3 0 9994 2 41338 31.0022 159.4477 0013482 101.0987 259.1165 15.01020354335775 ChubuSat-3 1 41339U 16012C 22090.86894919 .00001887 00000-0 13713-3 0 9999 2 41339 31.0096 154.7459 0013200 111.2369 248.9693 15.01124361335810 Horyu-4 1 41340U 16012D 22090.47355335 .00005302 00000-0 38081-3 0 9993 2 41340 31.0039 136.9206 0013586 145.3570 214.7953 15.02705888335988 [email protected] 1 41459U 16025D 22090.82684148 .00021530 00000-0 96801-3 0 9999 2 41459 98.1762 250.3767 0152032 172.5191 187.8362 15.11299420325769 AAUSAT4 1 41460U 16025E 22090.42861234 .00031851 00000-0 13094-2 0 9999 2 41460 98.1739 255.5015 0134627 152.3459 208.5218 15.16102824326107 LO-87 1 41557U 16033B 22090.94148269 .00013215 00000-0 42342-3 0 9991 2 41557 97.3850 188.6528 0010432 295.5108 198.7028 15.32441455325508 NuSat2 1 41558U 16033C 22090.80495662 .00012226 00000-0 36759-3 0 9995 2 41558 97.4021 193.7879 0009565 284.8806 190.6877 15.34496579325734 Lapan A3 1 41603U 16040E 22090.78896108 .00001416 00000-0 67808-4 0 9990 2 41603 97.2177 131.1692 0014968 75.9964 51.3534 15.20406979320234 Pratham 1 41783U 16059A 22090.54381229 .00000672 00000-0 13808-3 0 9999 2 41783 97.9239 135.1823 0034624 61.4849 298.9833 14.63270533294234 TY-1 1 41844U 16066D 22090.95289152 .00012714 00000-0 46341-3 0 9990 2 41844 97.3946 103.4085 0013121 193.9797 224.2090 15.28234121299766 CAS-2T 1 41847U 16066G 22090.71983213 .00001539 00000-0 23860-3 0 9990 2 41847 98.5588 155.4496 0365415 82.3976 281.8550 14.38449452283176 EO-88 1 42017U 17008BX 22090.44641042 .00024869 00000-0 81067-3 0 9992 2 42017 97.2774 157.8164 0006307 155.1279 205.0268 15.31783150285125 CAS-4B 1 42759U 17034B 22090.80125245 .00003968 00000-0 24514-3 0 9997 2 42759 43.0184 40.5038 0007343 167.1841 278.9755 15.11181189264601 CAS-4A 1 42761U 17034D 22090.84350632 .00004291 00000-0 26335-3 0 9997 2 42761 43.0180 39.1173 0007976 170.5029 285.4724 15.11273647264613 NIUSat 1 42766U 17036B 22090.54041462 .00013606 00000-0 54997-3 0 9994 2 42766 97.2123 131.1860 0012785 238.0174 121.9822 15.24777002264922 Aalto 1 1 42775U 17036L 22090.54862013 .00010488 00000-0 43023-3 0 9990 2 42775 97.2082 131.2288 0011517 237.0254 122.9878 15.24357620264901 URSA MAIOR 1 42776U 17036M 22090.55473680 .00011315 00000-0 45802-3 0 9997 2 42776 97.2095 131.8922 0011288 235.4349 124.5825 15.24789491264937 Max Valier Sat 1 42778U 17036P 22090.37114457 .00011901 00000-0 47178-3 0 9992 2 42778 97.2162 134.1896 0009882 236.1207 123.9092 15.25492325264991 Pegasus 1 42784U 17036V 22090.37935525 .00016702 00000-0 63268-3 0 9998 2 42784 97.2102 134.8994 0009344 238.0932 121.9399 15.26933020265090 NUDATSat 1 42787U 17036Y 22090.83787115 .00017724 00000-0 60477-3 0 9996 2 42787 97.2143 138.9301 0008601 221.7985 138.2609 15.30357982265218 SUCHAI 1 1 42788U 17036Z 22090.84729804 .00020709 00000-0 75240-3 0 9990 2 42788 97.2107 136.7959 0008936 230.4373 129.6079 15.28270853265328 SKCUBE 1 42789U 17036AA 22090.54967556 .00017812 00000-0 65826-3 0 9996 2 42789 97.2106 136.0514 0008865 232.7945 127.2487 15.27742060265172 VZLUSAT 1 1 42790U 17036AB 22090.38251767 .00025796 00000-0 88007-3 0 9996 2 42790 97.2135 138.4663 0008207 223.8872 136.1718 15.30290235265292 VENTA 1 1 42791U 17036AC 22089.70710205 .00010608 00000-0 39783-3 0 9991 2 42791 97.2085 135.1759 0008336 237.5596 122.4859 15.27379006265031 Robusta 1B 1 42792U 17036AD 22090.39777458 .00019640 00000-0 71655-3 0 9991 2 42792 97.2101 136.4144 0008436 232.9056 127.1414 15.28149426265192 D-SAT 1 42794U 17036AF 22090.50640177 .00005386 00000-0 46084-3 0 9993 2 42794 97.4538 100.0429 0123504 346.9668 12.8369 14.92219229259889 TechnoSat 1 42829U 17042E 22090.87776292 .00002096 00000-0 21370-3 0 9993 2 42829 97.4318 309.5066 0012529 266.9092 93.0694 14.91626057256523 QIKCOM-1 1 42983U 98067NF 22090.62793365 .00095623 00000-0 48307-3 0 9990 2 42983 51.6333 230.0222 0004062 327.9227 32.1527 15.80806959252565 AO-91 1 43017U 17073E 22090.67918194 .00006692 00000-0 50523-3 0 9992 2 43017 97.6846 348.0469 0252769 82.4482 280.5365 14.80643249235606 PICSAT 1 43132U 18004X 22090.48351640 .00021801 00000-0 77567-3 0 9997 2 43132 97.3774 167.4062 0006814 272.7156 87.3305 15.28966075234483 AO-92 1 43137U 18004AC 22090.78334883 .00015613 00000-0 57997-3 0 9994 2 43137 97.3737 166.7179 0006587 275.8448 84.2040 15.27620574234474 TianYi 2 1 43155U 18008A 22090.81408313 .00007121 00000-0 39311-3 0 9997 2 43155 97.3624 151.7378 0017919 58.0312 34.1844 15.14092938231528 Zhou Enlai 1 43156U 18008B 22090.81636993 .00007631 00000-0 42503-3 0 9998 2 43156 97.3674 151.5979 0015171 58.9876 33.6901 15.13792901231457 TianYi 6 1 43158U 18008D 22090.75639035 .00006591 00000-0 37620-3 0 9991 2 43158 97.3627 149.6665 0014384 58.7681 59.8461 15.12975851231350 S-Net D 1 43186U 18014G 22090.52960085 .00002980 00000-0 26008-3 0 9992 2 43186 97.6631 357.7577 0010474 193.9422 166.1513 14.97549108227252 S-Net B 1 43187U 18014H 22090.73011017 .00003049 00000-0 26591-3 0 9992 2 43187 97.6628 357.9095 0010507 193.1639 166.9310 14.97549150227288 S-Net A 1 43188U 18014J 22090.73035364 .00003047 00000-0 26580-3 0 9990 2 43188 97.6631 357.9686 0010501 193.2555 166.8392 14.97548414227282 S-Net C 1 43189U 18014K 22090.53050538 .00002991 00000-0 26105-3 0 9999 2 43189 97.6627 357.7033 0010502 193.8004 166.2933 14.97545394225803 FMN 1 1 43192U 18015A 22090.79221469 .00026470 00000-0 81164-3 0 9999 2 43192 97.5219 234.1200 0011445 304.5178 191.6420 15.33687393231523 Shaonian Xing 1 43199U 18015H 22090.76090066 .00016904 00000-0 55918-3 0 9999 2 43199 97.5002 229.9140 0013300 318.4642 147.2885 15.31329976231549 SurfSat 1 43614U 18070B 22090.50410520 .00047612 00000-0 87722-3 0 9993 2 43614 93.0255 65.8110 0009607 343.8698 16.2254 15.48945084198970 CP-7 DAVE 1 43615U 18070C 22090.85441974 .00048918 00000-0 92083-3 0 9995 2 43615 93.0258 65.8560 0009873 342.6103 17.4816 15.48321365199008 ELFIN-B 1 43616U 18070D 22090.44325746 .00087147 00000-0 12602-2 0 9994 2 43616 93.0164 66.4697 0007726 341.0403 19.0571 15.55597981199186 ELFIN-A 1 43617U 18070E 22090.52833699 .00084842 00000-0 11779-2 0 9998 2 43617 93.0252 67.6939 0006455 335.8685 24.2275 15.56722552199238 CubeBel-1 1 43666U 18083E 22090.77749615 .00009407 00000-0 41928-3 0 9991 2 43666 97.4303 120.3969 0012106 241.3656 235.6178 15.21574742189660 Changshagaoxin 1 43669U 18083H 22090.82299147 .00008293 00000-0 38624-3 0 9991 2 43669 97.4242 116.6557 0008576 234.8777 297.9716 15.20131687189501 Ten-Koh 1 43677U 18084G 22090.36216095 .00002347 00000-0 24374-3 0 9992 2 43677 97.9507 219.7778 0016292 164.8014 195.3696 14.90831527186049 PO-101 1 43678U 18084H 22090.85971368 .00001152 00000-0 11941-3 0 9997 2 43678 97.9555 223.2849 0010135 173.9517 186.1861 14.91991798186287 IRVINE 01 1 43693U 18088D 22090.49965527 .00052176 00000-0 16652-2 0 9993 2 43693 85.0361 3.4664 0016384 50.1784 310.0902 15.32149056188266 QO-100 1 43700U 18090A 22090.79710135 .00000128 00000-0 00000 0 0 9998 2 43700 0.0195 162.0395 0002318 239.3178 100.5060 1.00272918 12492 Reaktor Hello World 1 43743U 18096AA 22090.52379898 .00018940 00000-0 61752-3 0 9995 2 43743 97.3565 170.8329 0015100 342.1866 17.8844 15.31741977186029 MinXSS-2 1 43758U 18099A 22090.44992423 .00004723 00000-0 41648-3 0 9996 2 43758 97.6305 160.2543 0015858 163.8471 196.3260 14.96794341181439 AO-95 1 43770U 18099N 22090.41128861 .00004523 00000-0 40784-3 0 9992 2 43770 97.6289 158.7858 0014671 170.7075 189.4420 14.95958623181349 RANGE-B 1 43772U 18099Q 22090.50210380 .00005107 00000-0 45409-3 0 9990 2 43772 97.6386 160.3767 0014336 159.1930 200.9878 14.96452414181373 RANGE-A 1 43773U 18099R 22090.44912900 .00002694 00000-0 24675-3 0 9991 2 43773 97.6207 157.8203 0014007 159.6058 200.5726 14.95681385181337 MOVE-II 1 43780U 18099Y 22090.43045983 .00006165 00000-0 54032-3 0 9993 2 43780 97.6318 159.7560 0013519 167.3869 192.7694 14.96944185181380 SNUSat 2 1 43782U 18099AA 22090.46791656 .00004669 00000-0 41889-3 0 9996 2 43782 97.6283 159.2795 0013416 156.5719 203.6116 14.96153338181370 SnugLite 1 43784U 18099AC 22090.44864945 .00004142 00000-0 37034-3 0 9991 2 43784 97.6240 158.9179 0015376 166.2953 193.8689 14.96325881181393 ITASat 1 1 43786U 18099AE 22090.81507395 .00004180 00000-0 37511-3 0 9999 2 43786 97.6311 160.0525 0015557 162.8043 197.3709 14.96174405181448 EAGLET 1 1 43790U 18099AJ 22090.45368769 .00002414 00000-0 21763-3 0 9994 2 43790 97.6294 160.2163 0013669 168.3494 191.8047 14.96416101181127 ESEO 1 43792U 18099AL 22090.42926780 .00000997 00000-0 93773-4 0 9991 2 43792 97.6257 159.5143 0013467 164.9871 195.1753 14.96008236181165 CSIM 1 43793U 18099AM 22090.77303322 .00006925 00000-0 59618-3 0 9997 2 43793 97.6314 160.8957 0013284 160.1875 199.9866 14.97604140181251 Astrocast 0.1 1 43798U 18099AS 22090.74485078 .00005243 00000-0 46046-3 0 9991 2 43798 97.6313 160.8627 0013422 144.7954 215.4158 14.96931914181483 JO-97 1 43803U 18099AX 22090.45469145 .00004552 00000-0 40422-3 0 9997 2 43803 97.6262 159.4420 0015524 165.1896 194.9783 14.96548207181401 Suomi 100 1 43804U 18099AY 22090.46821843 .00004868 00000-0 43260-3 0 9999 2 43804 97.6264 159.3908 0015672 163.8235 196.3490 14.96485353181414 Al Farabi 2 1 43805U 18099AZ 22090.61473055 .00004317 00000-0 38019-3 0 9990 2 43805 97.6272 159.9416 0015367 162.1322 198.0456 14.96895786181454 CHOMPTT 1 43855U 18104G 22090.77994035 .00013971 00000-0 53931-3 0 9991 2 43855 85.0308 102.8808 0017286 156.8027 203.4001 15.26012424182874 ISAT 1 43879U 18111D 22090.69797311 .00006084 00000-0 52715-3 0 9990 2 43879 97.6725 357.7236 0011389 213.3959 146.6545 14.97425531176013 UWE-4 1 43880U 18111E 22090.71034314 .00004394 00000-0 38035-3 0 9993 2 43880 97.6748 358.3880 0010645 215.8461 144.2048 14.97617554176066 Sparrow 1 43881U 18111F 22090.53383040 .00005239 00000-0 45135-3 0 9995 2 43881 97.6741 358.4138 0011505 215.1650 144.8814 14.97707802178049 Lume 1 1 43908U 18111AJ 22090.66030463 .00016473 00000-0 59014-3 0 9990 2 43908 97.2027 340.9592 0019009 357.3645 2.7492 15.28644747181504 FO-98 1 43933U 19003B 22090.80683807 .00425782 00000-0 59164-2 0 9993 2 43933 97.1421 129.0319 0008690 102.5733 257.6494 15.55504246178175 FO-99 1 43937U 19003F 22090.84831145 .00021708 00000-0 77615-3 0 9993 2 43937 97.1402 127.2896 0023206 73.7880 286.5911 15.28563861178117 MYSat 1 1 44045U 18092F 22090.32419214 .00051602 00000-0 98016-3 0 9997 2 44045 51.6332 100.5678 0007410 156.6422 203.4904 15.47734262175741 AstroCast 0.2 1 44083U 19018F 22090.72286212 .00016716 00000-0 66611-3 0 9995 2 44083 97.3318 151.1331 0012894 49.3342 310.9015 15.25210896166636 AISTechSat 3 1 44103U 19018AB 22090.10581578 .00010632 00000-0 41403-3 0 9996 2 44103 97.3184 150.9487 0013675 58.0731 302.1835 15.26077628166690 AISat 1 1 44104U 19018AC 22090.19301180 .00011376 00000-0 33083-3 0 9996 2 44104 97.3982 173.0992 0054878 54.5029 306.1316 15.34082962167599 Prox-1 1 44339U 19036A 22089.99228619 .00006045 00000-0 13438-2 0 9995 2 44339 24.0012 328.5964 0010544 78.0615 282.1058 14.54458513146919 Oculus-ASR 1 44348U 19036K 22090.29077967 -.00005237 00000-0 -66076-4 0 9990 2 44348 28.5195 8.0790 0268047 159.1681 201.8086 15.27714799152541 Armadillo 1 44352U 19036P 22090.31025071 .00129733 -26971-5 10458-2 0 9995 2 44352 28.5266 312.3872 0199625 248.0593 109.8680 15.47648791153056 NO-104 1 44354U 19036R 22090.43205112 .00071335 -50019-5 74855-3 0 9992 2 44354 28.5274 355.2024 0263612 177.8250 182.3544 15.30208896152682 NO-103 1 44355U 19036S 22090.45059294 .00514860 81911-4 16170-2 0 9996 2 44355 28.5182 232.2630 0100347 19.2757 341.1612 15.82170902153904 Move-IIb 1 44398U 19038N 22090.88456639 .00014163 00000-0 72548-3 0 9995 2 44398 97.6159 59.6823 0024357 40.3662 319.9373 15.16443298151276 SONATE 1 44400U 19038Q 22090.61251519 .00005718 00000-0 31858-3 0 9995 2 44400 97.6288 58.8590 0025738 44.2910 316.0382 15.13727089151153 BeeSat 9 1 44412U 19038AC 22090.44186865 .00015105 00000-0 79926-3 0 9999 2 44412 97.6285 59.2791 0022645 48.5518 311.7654 15.15318444150871 JAISAT-1 1 44419U 19038F 22090.45211431 .00015601 00000-0 81472-3 0 9995 2 44419 97.6289 60.0651 0021463 46.3331 313.9676 15.15799414151232 LightSail-2 1 44420U 19036AC 22090.82603440 .00085161 00000-0 13975-1 0 9990 2 44420 24.0016 277.4844 0009041 180.1191 179.9303 14.69132181145738 Taurus 1 1 44530U 19059C 22090.83062131 .00001823 00000-0 51673-3 0 9996 2 44530 98.5426 188.6387 0012821 0.5491 359.5737 14.46668642134628 Duchifat 3 1 44854U 19089C 22090.66391598 .00004168 00000-0 33113-3 0 9995 2 44854 36.9628 201.2916 0009167 309.3327 50.6732 15.00409806126243 OPS-SAT 1 44878U 19092F 22089.95302052 .00012205 00000-0 59331-3 0 9993 2 44878 97.4792 274.6602 0011919 251.8660 108.1276 15.18509931126272 TO-108 1 44881U 19093C 22090.91640395 .00000533 00000-0 74412-4 0 9990 2 44881 97.8963 171.2339 0016519 79.4532 280.8542 14.81611829123294 FloripaSat 1 1 44885U 19093G 22090.81813625 .00001851 00000-0 23513-3 0 9990 2 44885 97.8999 172.2272 0015938 87.2793 273.0281 14.82780482123347 RS-44 1 44909U 19096E 22090.55654169 .00000029 00000-0 65948-4 0 9992 2 44909 82.5167 282.0353 0218036 141.6697 220.0130 12.79712628105542 Phoenix 1 45258U 98067RB 22090.89811252 .00154416 00000-0 10125-2 0 9995 2 45258 51.6342 318.3545 0005906 227.2367 132.8136 15.74739201120146 BY70-2 1 45857U 20042B 22090.83874654 .00005644 00000-0 77790-3 0 9997 2 45857 97.9586 168.4835 0010344 17.6589 342.5047 14.78565592 93984 UPMSat 2 1 46276U 20061E 22090.51594430 .00006231 00000-0 31448-3 0 9993 2 46276 97.3981 163.1331 0003006 90.7705 269.3873 15.17459329 87053 AmicalSat 1 46287U 20061R 22090.73111548 .00008988 00000-0 53066-3 0 9995 2 46287 97.4533 162.3537 0003099 157.8728 202.2637 15.11738713 86728 SALSAT 1 46495U 20068K 22090.47080807 .00003160 00000-0 23226-3 0 9999 2 46495 97.7225 31.8058 0016659 175.9240 184.2124 15.04060893 82460 BY70-3 1 46839U 20079N 22090.81334034 .00021602 00000-0 57340-3 0 9990 2 46839 97.2062 164.1024 0005282 243.3662 256.2481 15.38293694 78293 SPOC 1 46921U 98067RR 22090.18825391 .00130026 00000-0 10028-2 0 9997 2 46921 51.6364 334.7452 0003210 164.5649 195.5447 15.71031221 79619 Bobcat-1 1 46922U 98067RS 22090.84133848 .00885381 38184-3 16977-2 0 9997 2 46922 51.6299 316.5246 0008134 232.9563 127.0703 15.99902886 79867 Neutron-1 1 46923U 98067RT 22090.86269697 .00136827 00000-0 10531-2 0 9999 2 46923 51.6373 331.7604 0003317 168.8014 191.3058 15.71054507 79735 CAPE 3 1 47309U 21002A 22090.14432846 .00012690 00000-0 54314-3 0 9991 2 47309 60.6833 298.7618 0017647 229.6887 130.2659 15.23047189 66513 AO-109 1 47311U 21002C 22090.81920203 .00012594 00000-0 52846-3 0 9998 2 47311 60.6861 294.1789 0013766 218.0227 141.9890 15.23778775 66635 MiTEE 1 1 47314U 21002F 22090.75428730 .00026920 00000-0 10088-2 0 9991 2 47314 60.6829 289.7499 0015565 201.2876 158.7567 15.27081792 66719 ExoCube 2 1 47319U 21002L 22090.53377470 .00011590 00000-0 49312-3 0 9996 2 47319 60.6837 296.1350 0014868 225.4011 134.5864 15.23361788 66539 UVSQ-SAT 1 47438U 21006AB 22090.74828119 .00009893 00000-0 53829-3 0 9997 2 47438 97.4469 151.3776 0012549 177.7656 182.3634 15.14586127 65511 YUSAT 1 1 47439U 21006AC 22090.40556957 .00011168 00000-0 60325-3 0 9996 2 47439 97.4472 151.0909 0012366 179.2168 180.9086 15.14813166 65468 SOMP 2b 1 47445U 21006AJ 22090.40194744 .00008553 00000-0 46912-3 0 9995 2 47445 97.4436 150.7661 0012035 182.7897 177.3270 15.14345729 65456 IDEASSat 1 47458U 21006AX 22090.44149012 .00009324 00000-0 51349-3 0 9998 2 47458 97.4529 151.2286 0011229 180.4686 179.6537 15.14184936 65459 RSP-01 1 47925U 98067SB 22090.79122875 .00164418 00000-0 13091-2 0 9991 2 47925 51.6383 341.0356 0002934 167.3767 192.7305 15.70146207 59556 TAUSAT-1 1 47926U 98067SC 22090.18574433 .00254712 00000-0 13517-2 0 9996 2 47926 51.6321 338.4308 0004651 190.2123 169.8785 15.79220561 59524 Tsuru 1 47927U 98067SD 22090.11509945 .00126439 00000-0 11405-2 0 9994 2 47927 51.6380 346.2636 0002436 153.4529 206.6592 15.67244235 59427 STARS-EC 1 47928U 98067SE 22090.82425386 .00580094 00000-0 20659-2 0 9991 2 47928 51.6320 334.4209 0007194 193.6299 166.4512 15.86863639 59626 Maya-2 1 47929U 98067SF 22090.43125329 .00134237 00000-0 12103-2 0 9992 2 47929 51.6381 344.6252 0002222 154.5904 205.5202 15.67225835 59430 OPUSAT-II 1 47930U 98067SG 22090.10307183 .00539920 00000-0 18155-2 0 9999 2 47930 51.6293 336.3460 0006568 207.3589 152.7071 15.88129899 59552 GuaraniSat-1 1 47931U 98067SH 22090.42163846 .00137110 00000-0 12276-2 0 9994 2 47931 51.6392 344.5770 0002229 153.4176 206.6934 15.67387318 59478 CubeSX-Sirius-HSE 1 47951U 21022V 22090.86958019 .00004481 00000-0 30422-3 0 9993 2 47951 97.5375 352.0249 0023019 53.6954 306.6453 15.06684711 56317 CubeSX-HSE 1 47952U 21022W 22090.80898591 .00005112 00000-0 34591-3 0 9999 2 47952 97.5379 351.9801 0022918 53.5759 32.0522 15.06741566 56301 KSU-Cubesat 1 47954U 21022Y 22090.70156058 .00007576 00000-0 50818-3 0 9991 2 47954 97.5389 351.9491 0022624 54.2198 306.1129 15.06912797 56010 GRBAlpha 1 47959U 21022AD 22090.80597462 .00005147 00000-0 34814-3 0 9995 2 47959 97.5382 352.0068 0022556 54.1150 19.8650 15.06757877 55125 Orbicraft-Zorkiy 1 47960U 21022AE 22090.78969838 .00004740 00000-0 32011-3 0 9999 2 47960 97.5400 352.0943 0022609 54.1488 33.7530 15.06861603 55814 STECCO 1 47962U 21022AG 22090.76638227 .00006561 00000-0 42419-3 0 9990 2 47962 97.5368 352.5642 0017988 48.5648 39.0514 15.08404867 55154 DO-111 1 47963U 21022AH 22090.52825976 .00025996 00000-0 15633-2 0 9994 2 47963 97.5399 352.9199 0019824 46.0844 314.2018 15.10664360 55170 MO-110 1 47964U 21022AJ 22090.28244663 .00011751 00000-0 74839-3 0 9994 2 47964 97.5379 352.2886 0020318 47.7130 312.5817 15.08738679 55092 FEES 1 48082U 21022AL 22090.49480118 .00015778 00000-0 10026-2 0 9996 2 48082 97.5388 352.3657 0016602 45.5213 314.7370 15.08810993 54828 RamSat 1 48850U 98067SL 22090.44653650 .00075092 00000-0 90853-3 0 9992 2 48850 51.6409 352.9602 0005311 137.2049 222.9358 15.59993659 45118 MO-112 1 48868U 98067SP 22090.77004200 .00510372 00000-0 20975-2 0 9990 2 48868 51.6306 340.7928 0007800 193.6846 166.3947 15.84050872 44084 TUBIN 1 48900U 21059X 22090.83187924 .00004643 00000-0 26514-3 0 9991 2 48900 97.5396 220.8545 0010473 19.2373 100.6465 15.13167660 42170 IT-SPINS 1 49017U 21013G 22090.31507677 .00017123 00000-0 69072-3 0 9998 2 49017 51.5943 53.2040 0009410 150.1168 210.0348 15.24859796 41852 LEDSAT 1 49069U 21073D 22090.83240969 .00007201 00000-0 46878-3 0 9991 2 49069 97.5292 165.2780 0027363 197.6949 162.3329 15.07942898 34139 CUTE 1 49263U 21088D 22090.42253563 .00005410 00000-0 41210-3 0 9997 2 49263 97.5924 159.9190 0020065 331.4132 28.5991 15.02320563 27703 Binar-1 1 49272U 98067SR 22090.16799810 .00081655 00000-0 10371-2 0 9997 2 49272 51.6406 357.8301 0003272 62.4254 297.7071 15.58686350 27416 Maya-3 1 49273U 98067SS 22090.78059383 .00110873 00000-0 12680-2 0 9990 2 49273 51.6398 353.6742 0002703 79.4412 280.6886 15.61299639 27523 Maya-4 1 49274U 98067ST 22090.14871595 .00109832 00000-0 12700-2 0 9994 2 49274 51.6397 356.9516 0002614 77.6808 282.4479 15.61018258 27421 CUAVA-1 1 49275U 98067SU 22090.82176775 .00075496 00000-0 90399-3 0 9997 2 49275 51.6423 353.7806 0003614 77.7835 357.6512 15.60271394 27470 TeikyoSat 4 1 49396U 21102B 22090.53694955 .00000886 00000-0 74768-4 0 9994 2 49396 97.5457 151.0268 0020248 159.0403 201.1655 15.00463592 21368 Z-Sat 1 49399U 21102E 22090.84074114 .00003509 00000-0 26889-3 0 9995 2 49399 97.5480 151.7270 0024154 133.8227 226.5000 15.02247265 21433 KOSEN 1 1 49402U 21102H 22090.82146100 .00003723 00000-0 27789-3 0 9991 2 49402 97.5402 151.7882 0024584 122.0007 238.3612 15.03196149 21440 HO-113 1 50466U 21131B 22090.68468860 .00000295 00000-0 11134-3 0 9997 2 50466 98.5841 167.9670 0004833 36.6546 323.4971 14.38455837 13733 Tevel 1 50999U 22002R 22090.46078935 .00011711 00000-0 65519-3 0 9993 2 50999 97.4883 158.8325 0010573 334.7374 25.3339 15.13567094 11628 Grizu-263a 1 51025U 22002AT 22090.43539634 .00020039 00000-0 10914-2 0 9990 2 51025 97.5055 159.0434 0012350 338.4798 21.5913 15.14386651 11626 NO-116 1 51031U 22002AZ 22089.71267439 .00011222 00000-0 61861-3 0 9999 2 51031 97.5015 158.2767 0012687 341.3898 18.6868 15.14086176 11519 IRIS-A 1 51044U 22002BN 22090.43250957 .00006374 00000-0 36792-3 0 9998 2 51044 97.4899 158.7363 0008651 342.9853 17.1086 15.12650062 11619 DELFI-PQ 1 51074U 22002CU 22090.76998954 .00017640 00000-0 93111-3 0 9999 2 51074 97.5135 159.5992 0013984 9.5377 350.6118 15.15507356 11683 SO-115 1 51080U 22002DA 22090.90981810 .00012879 00000-0 68774-3 0 9991 2 51080 97.5152 159.7324 0013767 9.6022 350.5470 15.15171837 11701 SO-114 1 51081U 22002DB 22090.44812811 .00011898 00000-0 63586-3 0 9991 2 51081 97.5140 159.2662 0014102 10.9482 349.2055 15.15158605 11632 GASPACS 1 51439U 98067TB 22090.46463846 .00203471 00000-0 23004-2 0 9994 2 51439 51.6402 359.0536 0004989 231.5926 128.4620 15.61236450 9983 /EX